Location: La Junie
(44.7428°N, 2.1773°E)
Time: 16:03:08
(UTC+00:00)

CZ-2C R/B - Pass Details

Date: 15 May 2026
Orbit: 702 x 901 km, 98.2° (Epoch: 10 June)

Event Time Altitude Azimuth Distance (km) Brightness Sun altitude
Rises 23:01:14 0° 20° (NNE) 3,510 7.3 -25.3°
Reaches altitude 10° 23:03:50 10° 28° (NNE) 2,578 6.3 -25.4°
Maximum altitude 23:09:12 38° 96° (E) 1,340 4.0 -25.6°
Enters shadow 23:09:28 38° 103° (ESE) 1,344 4.0 -25.6°
